{"data":{"norad_id":63961,"epoch":"2026-05-25T04:12:58.523040Z","epoch_age_seconds":50096,"freshness":"FRESH","line1":"1 63961U 25099K   26145.17567735  .00018626  00000+0  68431-3 0  9996","line2":"2 63961  42.9979 104.2829 0000832 262.0051  98.0706 15.27596346 59037","mean_motion":15.27596346,"eccentricity":8.32e-5,"inclination_deg":42.9979,"raan_deg":104.2829,"arg_perigee_deg":262.0051,"mean_anomaly_deg":98.0706,"bstar":0.00068431,"rev_number":5903,"period_min":94.265740015065,"perigee_km":482.42930406073,"apogee_km":483.5709972826,"semimajor_km":6861.1371506717,"source":"CELESTRAK","updated_at":"2026-05-25T13:38:20.212650Z"}}